Year,Month,Day,Hour,Minute,Value (Times are PST for windspeed in km/hr)
2010,06,03,00,00,10.50
2010,06,03,00,01,10.50
2010,06,03,00,02,14.30
2010,06,03,00,03,16.50
2010,06,03,00,04,14.20
2010,06,03,00,05,9.20
2010,06,03,00,06,14.30
2010,06,03,00,07,15.40
2010,06,03,00,08,10.40
2010,06,03,00,09,9.60
2010,06,03,00,10,11.00
2010,06,03,00,11,11.10
2010,06,03,00,12,10.10
2010,06,03,00,13,10.80
2010,06,03,00,14,11.30
2010,06,03,00,15,13.30
2010,06,03,00,16,11.40
2010,06,03,00,17,10.10
2010,06,03,00,18,12.10
2010,06,03,00,19,8.60
2010,06,03,00,20,10.10
2010,06,03,00,21,11.20
2010,06,03,00,22,9.70
2010,06,03,00,23,9.10
2010,06,03,00,24,11.80
2010,06,03,00,25,10.00
2010,06,03,00,26,7.00
2010,06,03,00,27,8.20
2010,06,03,00,28,9.30
2010,06,03,00,29,7.50
2010,06,03,00,30,9.70
2010,06,03,00,31,7.60
2010,06,03,00,32,7.10
2010,06,03,00,33,4.80
2010,06,03,00,34,4.10
2010,06,03,00,35,5.10
2010,06,03,00,36,4.00
2010,06,03,00,37,6.80
2010,06,03,00,38,1.80
2010,06,03,00,39,2.10
2010,06,03,00,40,4.30
2010,06,03,00,41,1.80
2010,06,03,00,42,5.20
2010,06,03,00,43,2.00
2010,06,03,00,44,1.60
2010,06,03,00,45,0.60
2010,06,03,00,46,0.30
2010,06,03,00,47,0.90
2010,06,03,00,48,6.10
2010,06,03,00,49,3.80
2010,06,03,00,50,4.30
2010,06,03,00,51,4.50
2010,06,03,00,52,7.20
2010,06,03,00,53,6.60
2010,06,03,00,54,3.20
2010,06,03,00,55,2.80
2010,06,03,00,56,4.10
2010,06,03,00,57,6.30
2010,06,03,00,58,4.70
2010,06,03,00,59,2.60
2010,06,03,01,00,2.70
2010,06,03,01,01,5.40
2010,06,03,01,02,4.70
2010,06,03,01,03,1.00
2010,06,03,01,04,2.10
2010,06,03,01,05,2.30
2010,06,03,01,06,1.20
2010,06,03,01,07,1.80
2010,06,03,01,08,1.70
2010,06,03,01,09,2.00
2010,06,03,01,10,0.50
2010,06,03,01,11,0.10
2010,06,03,01,12,0.60
2010,06,03,01,13,0.40
2010,06,03,01,14,0.00
2010,06,03,01,15,0.60
2010,06,03,01,16,0.30
2010,06,03,01,17,0.00
2010,06,03,01,18,0.00
2010,06,03,01,19,0.00
2010,06,03,01,20,0.00
2010,06,03,01,21,0.00
2010,06,03,01,22,0.00
2010,06,03,01,23,0.10
2010,06,03,01,24,0.00
2010,06,03,01,25,0.00
2010,06,03,01,26,0.20
2010,06,03,01,27,0.00
2010,06,03,01,28,0.00
2010,06,03,01,29,0.20
2010,06,03,01,30,0.10
2010,06,03,01,31,0.00
2010,06,03,01,32,0.10
2010,06,03,01,33,0.30
2010,06,03,01,34,0.00
2010,06,03,01,35,0.20
2010,06,03,01,36,0.00
2010,06,03,01,37,0.00
2010,06,03,01,38,0.00
2010,06,03,01,39,0.50
2010,06,03,01,40,0.30
2010,06,03,01,41,0.10
2010,06,03,01,42,0.00
2010,06,03,01,43,2.90
2010,06,03,01,44,1.70
2010,06,03,01,45,1.30
2010,06,03,01,46,0.00
2010,06,03,01,47,0.00
2010,06,03,01,48,0.00
2010,06,03,01,49,0.00
2010,06,03,01,50,0.00
2010,06,03,01,51,0.00
2010,06,03,01,52,0.30
2010,06,03,01,53,0.60
2010,06,03,01,54,2.60
2010,06,03,01,55,1.80
2010,06,03,01,56,6.70
2010,06,03,01,57,2.20
2010,06,03,01,58,1.60
2010,06,03,01,59,6.20
2010,06,03,02,00,1.40
2010,06,03,02,01,2.00
2010,06,03,02,02,4.90
2010,06,03,02,03,7.40
2010,06,03,02,04,6.40
2010,06,03,02,05,6.90
2010,06,03,02,06,5.40
2010,06,03,02,07,5.20
2010,06,03,02,08,7.30
2010,06,03,02,09,8.50
2010,06,03,02,10,6.70
2010,06,03,02,11,9.80
2010,06,03,02,12,10.20
2010,06,03,02,13,8.20
2010,06,03,02,14,9.60
2010,06,03,02,15,10.00
2010,06,03,02,16,9.00
2010,06,03,02,17,9.80
2010,06,03,02,18,10.90
2010,06,03,02,19,9.20
2010,06,03,02,20,2.50
2010,06,03,02,21,5.50
2010,06,03,02,22,9.60
2010,06,03,02,23,4.30
2010,06,03,02,24,4.70
2010,06,03,02,25,9.10
2010,06,03,02,26,5.10
2010,06,03,02,27,6.10
2010,06,03,02,28,3.90
2010,06,03,02,29,13.70
2010,06,03,02,30,12.30
2010,06,03,02,31,14.70
2010,06,03,02,32,9.70
2010,06,03,02,33,7.70
2010,06,03,02,34,7.50
2010,06,03,02,35,6.70
2010,06,03,02,36,7.00
2010,06,03,02,37,7.50
2010,06,03,02,38,3.80
2010,06,03,02,39,2.40
2010,06,03,02,40,6.80
2010,06,03,02,41,0.80
2010,06,03,02,42,2.80
2010,06,03,02,43,4.00
2010,06,03,02,44,5.80
2010,06,03,02,45,6.00
2010,06,03,02,46,5.60
2010,06,03,02,47,4.80
2010,06,03,02,48,5.60
2010,06,03,02,49,6.00
2010,06,03,02,50,4.30
2010,06,03,02,51,5.40
2010,06,03,02,52,4.00
2010,06,03,02,53,6.80
2010,06,03,02,54,5.20
2010,06,03,02,55,7.90
2010,06,03,02,56,6.60
2010,06,03,02,57,5.40
2010,06,03,02,58,3.10
2010,06,03,02,59,2.90
2010,06,03,03,00,4.70
2010,06,03,03,01,4.70
2010,06,03,03,02,5.40
2010,06,03,03,03,2.60
2010,06,03,03,04,1.20
2010,06,03,03,05,9.70
2010,06,03,03,06,6.80
2010,06,03,03,07,5.80
2010,06,03,03,08,7.60
2010,06,03,03,09,6.80
2010,06,03,03,10,1.40
2010,06,03,03,11,6.80
2010,06,03,03,12,3.90
2010,06,03,03,13,4.00
2010,06,03,03,14,0.80
2010,06,03,03,15,2.50
2010,06,03,03,16,3.60
2010,06,03,03,17,5.40
2010,06,03,03,18,5.50
2010,06,03,03,19,3.10
2010,06,03,03,20,4.50
2010,06,03,03,21,3.30
2010,06,03,03,22,3.10
2010,06,03,03,23,3.60
2010,06,03,03,24,2.70
2010,06,03,03,25,1.60
2010,06,03,03,26,3.60
2010,06,03,03,27,0.50
2010,06,03,03,28,0.90
2010,06,03,03,29,0.10
2010,06,03,03,30,1.50
2010,06,03,03,31,1.90
2010,06,03,03,32,5.00
2010,06,03,03,33,0.70
2010,06,03,03,34,3.90
2010,06,03,03,35,5.30
2010,06,03,03,36,0.30
2010,06,03,03,37,2.20
2010,06,03,03,38,0.90
2010,06,03,03,39,1.20
2010,06,03,03,40,0.30
2010,06,03,03,41,0.60
2010,06,03,03,42,0.60
2010,06,03,03,43,1.30
2010,06,03,03,44,0.00
2010,06,03,03,45,4.10
2010,06,03,03,46,3.30
2010,06,03,03,47,1.60
2010,06,03,03,48,0.50
2010,06,03,03,49,0.80
2010,06,03,03,50,1.90
2010,06,03,03,51,1.60
2010,06,03,03,52,1.60
2010,06,03,03,53,0.80
2010,06,03,03,54,3.50
2010,06,03,03,55,1.60
2010,06,03,03,56,0.40
2010,06,03,03,57,0.70
2010,06,03,03,58,0.70
2010,06,03,03,59,0.10
2010,06,03,04,00,0.10
2010,06,03,04,01,1.60
2010,06,03,04,02,1.40
2010,06,03,04,03,1.70
2010,06,03,04,04,0.50
2010,06,03,04,05,0.30
2010,06,03,04,06,1.30
2010,06,03,04,07,5.20
2010,06,03,04,08,0.40
2010,06,03,04,09,0.40
2010,06,03,04,10,1.80
2010,06,03,04,11,0.00
2010,06,03,04,12,1.90
2010,06,03,04,13,0.00
2010,06,03,04,14,0.20
2010,06,03,04,15,0.50
2010,06,03,04,16,0.20
2010,06,03,04,17,0.00
2010,06,03,04,18,0.00
2010,06,03,04,19,0.10
2010,06,03,04,20,1.40
2010,06,03,04,21,0.40
2010,06,03,04,22,0.70
2010,06,03,04,23,2.50
2010,06,03,04,24,0.50
2010,06,03,04,25,1.40
2010,06,03,04,26,0.00
2010,06,03,04,27,0.50
2010,06,03,04,28,1.30
2010,06,03,04,29,2.40
2010,06,03,04,30,0.00
2010,06,03,04,31,0.00
2010,06,03,04,32,0.00
2010,06,03,04,33,0.00
2010,06,03,04,34,0.00
2010,06,03,04,35,0.00
2010,06,03,04,36,0.40
2010,06,03,04,37,0.00
2010,06,03,04,38,0.20
2010,06,03,04,39,0.00
2010,06,03,04,40,0.00
2010,06,03,04,41,0.00
2010,06,03,04,42,0.00
2010,06,03,04,43,0.00
2010,06,03,04,44,0.00
2010,06,03,04,45,0.20
2010,06,03,04,46,0.10
2010,06,03,04,47,0.00
2010,06,03,04,48,0.00
2010,06,03,04,49,0.00
2010,06,03,04,50,0.00
2010,06,03,04,51,0.00
2010,06,03,04,52,0.00
2010,06,03,04,53,0.00
2010,06,03,04,54,0.00
2010,06,03,04,55,0.00
2010,06,03,04,56,0.20
2010,06,03,04,57,0.70
2010,06,03,04,58,0.80
2010,06,03,04,59,0.70
2010,06,03,05,00,0.20
2010,06,03,05,01,0.50
2010,06,03,05,02,1.30
2010,06,03,05,03,0.90
2010,06,03,05,04,1.00
2010,06,03,05,05,2.00
2010,06,03,05,06,1.30
2010,06,03,05,07,2.60
2010,06,03,05,08,1.10
2010,06,03,05,09,0.40
2010,06,03,05,10,0.50
2010,06,03,05,11,0.00
2010,06,03,05,12,0.00
2010,06,03,05,13,0.10
2010,06,03,05,14,0.80
2010,06,03,05,15,0.30
2010,06,03,05,16,0.10
2010,06,03,05,17,0.60
2010,06,03,05,18,0.50
2010,06,03,05,19,0.20
2010,06,03,05,20,0.70
2010,06,03,05,21,0.10
2010,06,03,05,22,0.20
2010,06,03,05,23,0.10
2010,06,03,05,24,0.10
2010,06,03,05,25,0.00
2010,06,03,05,26,0.00
2010,06,03,05,27,0.00
2010,06,03,05,28,0.20
2010,06,03,05,29,0.70
2010,06,03,05,30,0.60
2010,06,03,05,31,0.00
2010,06,03,05,32,0.00
2010,06,03,05,33,0.00
2010,06,03,05,34,0.00
2010,06,03,05,35,0.00
2010,06,03,05,36,0.00
2010,06,03,05,37,0.10
2010,06,03,05,38,0.00
2010,06,03,05,39,0.00
2010,06,03,05,40,0.10
2010,06,03,05,41,0.00
2010,06,03,05,42,0.00
2010,06,03,05,43,0.50
2010,06,03,05,44,0.80
2010,06,03,05,45,0.50
2010,06,03,05,46,1.30
2010,06,03,05,47,1.00
2010,06,03,05,48,1.90
2010,06,03,05,49,1.70
2010,06,03,05,50,0.90
2010,06,03,05,51,2.30
2010,06,03,05,52,2.80
2010,06,03,05,53,2.50
2010,06,03,05,54,2.10
2010,06,03,05,55,0.00
2010,06,03,05,56,0.40
2010,06,03,05,57,0.60
2010,06,03,05,58,0.10
2010,06,03,05,59,0.10
2010,06,03,06,00,0.00
2010,06,03,06,01,0.00
2010,06,03,06,02,0.00
2010,06,03,06,03,0.00
2010,06,03,06,04,0.00
2010,06,03,06,05,0.00
2010,06,03,06,06,0.00
2010,06,03,06,07,0.00
2010,06,03,06,08,0.00
2010,06,03,06,09,0.00
2010,06,03,06,10,0.00
2010,06,03,06,11,0.00
2010,06,03,06,12,0.00
2010,06,03,06,13,0.00
2010,06,03,06,14,0.00
2010,06,03,06,15,0.00
2010,06,03,06,16,0.00
2010,06,03,06,17,0.00
2010,06,03,06,18,0.00
2010,06,03,06,19,0.00
2010,06,03,06,20,0.00
2010,06,03,06,21,0.00
2010,06,03,06,22,0.00
2010,06,03,06,23,0.60
2010,06,03,06,24,0.00
2010,06,03,06,25,0.00
2010,06,03,06,26,0.00
2010,06,03,06,27,0.00
2010,06,03,06,28,0.00
2010,06,03,06,29,0.00
2010,06,03,06,30,0.00
2010,06,03,06,31,0.20
2010,06,03,06,32,0.50
2010,06,03,06,33,1.80
2010,06,03,06,34,1.10
2010,06,03,06,35,0.30
2010,06,03,06,36,0.00
2010,06,03,06,37,0.00
2010,06,03,06,38,0.00
2010,06,03,06,39,0.00
2010,06,03,06,40,0.00
2010,06,03,06,41,0.00
2010,06,03,06,42,0.00
2010,06,03,06,43,0.00
2010,06,03,06,44,0.00
2010,06,03,06,45,0.00
2010,06,03,06,46,0.00
2010,06,03,06,47,0.00
2010,06,03,06,48,0.00
2010,06,03,06,49,0.00
2010,06,03,06,50,0.00
2010,06,03,06,51,0.00
2010,06,03,06,52,0.00
2010,06,03,06,53,0.10
2010,06,03,06,54,0.00
2010,06,03,06,55,0.00
2010,06,03,06,56,0.00
2010,06,03,06,57,0.00
2010,06,03,06,58,0.00
2010,06,03,06,59,0.20
2010,06,03,07,00,0.60
2010,06,03,07,01,0.00
2010,06,03,07,02,0.00
2010,06,03,07,03,0.00
2010,06,03,07,04,0.00
2010,06,03,07,05,0.00
2010,06,03,07,06,0.00
2010,06,03,07,07,0.00
2010,06,03,07,08,0.00
2010,06,03,07,09,0.00
2010,06,03,07,10,1.20
2010,06,03,07,11,0.70
2010,06,03,07,12,2.00
2010,06,03,07,13,0.90
2010,06,03,07,14,0.70
2010,06,03,07,15,0.30
2010,06,03,07,16,0.20
2010,06,03,07,17,0.80
2010,06,03,07,18,1.50
2010,06,03,07,19,0.20
2010,06,03,07,20,0.10
2010,06,03,07,21,0.50
2010,06,03,07,22,0.00
2010,06,03,07,23,0.00
2010,06,03,07,24,0.00
2010,06,03,07,25,0.00
2010,06,03,07,26,0.40
2010,06,03,07,27,0.00
2010,06,03,07,28,0.60
2010,06,03,07,29,0.00
2010,06,03,07,30,0.00
2010,06,03,07,31,0.00
2010,06,03,07,32,0.00
2010,06,03,07,33,0.00
2010,06,03,07,34,0.00
2010,06,03,07,35,0.00
2010,06,03,07,36,0.00
2010,06,03,07,37,0.00
2010,06,03,07,38,0.70
2010,06,03,07,39,1.70
2010,06,03,07,40,1.50
2010,06,03,07,41,0.60
2010,06,03,07,42,1.50
2010,06,03,07,43,0.70
2010,06,03,07,44,0.00
2010,06,03,07,45,0.00
2010,06,03,07,46,0.00
2010,06,03,07,47,0.70
2010,06,03,07,48,0.00
2010,06,03,07,49,0.70
2010,06,03,07,50,0.50
2010,06,03,07,51,0.00
2010,06,03,07,52,0.20
2010,06,03,07,53,2.90
2010,06,03,07,54,2.90
2010,06,03,07,55,2.20
2010,06,03,07,56,0.90
2010,06,03,07,57,6.00
2010,06,03,07,58,7.90
2010,06,03,07,59,4.70
2010,06,03,08,00,7.40
2010,06,03,08,01,4.80
2010,06,03,08,02,3.90
2010,06,03,08,03,6.50
2010,06,03,08,04,5.60
2010,06,03,08,05,5.10
2010,06,03,08,06,8.50
2010,06,03,08,07,6.20
2010,06,03,08,08,5.30
2010,06,03,08,09,4.40
2010,06,03,08,10,3.30
2010,06,03,08,11,8.20
2010,06,03,08,12,7.30
2010,06,03,08,13,7.00
2010,06,03,08,14,6.60
2010,06,03,08,15,3.60
2010,06,03,08,16,5.30
2010,06,03,08,17,4.40
2010,06,03,08,18,2.30
2010,06,03,08,19,3.80
2010,06,03,08,20,3.70
2010,06,03,08,21,7.20
2010,06,03,08,22,9.00
2010,06,03,08,23,7.40
2010,06,03,08,24,6.80
2010,06,03,08,25,4.70
2010,06,03,08,26,2.20
2010,06,03,08,27,5.20
2010,06,03,08,28,4.20
2010,06,03,08,29,6.70
2010,06,03,08,30,5.10
2010,06,03,08,31,2.90
2010,06,03,08,32,7.80
2010,06,03,08,33,8.90
2010,06,03,08,34,8.40
2010,06,03,08,35,6.80
2010,06,03,08,36,4.50
2010,06,03,08,37,5.10
2010,06,03,08,38,4.60
2010,06,03,08,39,7.80
2010,06,03,08,40,6.40
2010,06,03,08,41,4.90
2010,06,03,08,42,4.50
2010,06,03,08,43,2.40
2010,06,03,08,44,4.70
2010,06,03,08,45,5.10
2010,06,03,08,46,3.20
2010,06,03,08,47,2.20
2010,06,03,08,48,5.40
2010,06,03,08,49,2.00
2010,06,03,08,50,0.60
2010,06,03,08,51,6.80
2010,06,03,08,52,7.50
2010,06,03,08,53,9.10
2010,06,03,08,54,7.10
2010,06,03,08,55,8.60
2010,06,03,08,56,5.90
2010,06,03,08,57,8.50
2010,06,03,08,58,8.40
2010,06,03,08,59,8.70
2010,06,03,09,00,8.20
2010,06,03,09,01,6.30
2010,06,03,09,02,9.10
2010,06,03,09,03,5.20
2010,06,03,09,04,5.50
2010,06,03,09,05,3.30
2010,06,03,09,06,9.90
2010,06,03,09,07,10.60
2010,06,03,09,08,9.30
2010,06,03,09,09,8.80
2010,06,03,09,10,7.20
2010,06,03,09,11,12.70
2010,06,03,09,12,10.80
2010,06,03,09,13,10.90
2010,06,03,09,14,7.50
2010,06,03,09,15,6.30
2010,06,03,09,16,11.20
2010,06,03,09,17,10.50
2010,06,03,09,18,5.60
2010,06,03,09,19,5.60
2010,06,03,09,20,4.10
2010,06,03,09,21,5.80
2010,06,03,09,22,4.60
2010,06,03,09,23,6.10
2010,06,03,09,24,5.80
2010,06,03,09,25,7.00
2010,06,03,09,26,10.80
2010,06,03,09,27,8.00
2010,06,03,09,28,1.80
2010,06,03,09,29,8.30
2010,06,03,09,30,7.80
2010,06,03,09,31,7.70
2010,06,03,09,32,13.00
2010,06,03,09,33,11.60
2010,06,03,09,34,9.40
2010,06,03,09,35,4.20
2010,06,03,09,36,4.90
2010,06,03,09,37,8.50
2010,06,03,09,38,11.00
2010,06,03,09,39,10.90
2010,06,03,09,40,5.70
2010,06,03,09,41,6.60
2010,06,03,09,42,9.50
2010,06,03,09,43,7.20
2010,06,03,09,44,9.80
2010,06,03,09,45,8.60
2010,06,03,09,46,5.50
2010,06,03,09,47,9.40
2010,06,03,09,48,11.70
2010,06,03,09,49,10.30
2010,06,03,09,50,8.50
2010,06,03,09,51,7.70
2010,06,03,09,52,8.90
2010,06,03,09,53,5.90
2010,06,03,09,54,5.40
2010,06,03,09,55,5.90
2010,06,03,09,56,7.20
2010,06,03,09,57,7.60
2010,06,03,09,58,9.80
2010,06,03,09,59,8.00
2010,06,03,10,00,7.60
2010,06,03,10,01,7.80
2010,06,03,10,02,9.30
2010,06,03,10,03,10.50
2010,06,03,10,04,11.00
2010,06,03,10,05,9.70
2010,06,03,10,06,3.40
2010,06,03,10,07,4.60
2010,06,03,10,08,9.20
2010,06,03,10,09,5.60
2010,06,03,10,10,9.80
2010,06,03,10,11,7.60
2010,06,03,10,12,7.00
2010,06,03,10,13,7.60
2010,06,03,10,14,4.20
2010,06,03,10,15,5.10
2010,06,03,10,16,7.30
2010,06,03,10,17,4.70
2010,06,03,10,18,6.20
2010,06,03,10,19,7.70
2010,06,03,10,20,6.40
2010,06,03,10,21,6.20
2010,06,03,10,22,2.30
2010,06,03,10,23,5.20
2010,06,03,10,24,7.50
2010,06,03,10,25,2.60
2010,06,03,10,26,3.20
2010,06,03,10,27,10.70
2010,06,03,10,28,4.90
2010,06,03,10,29,4.80
2010,06,03,10,30,7.70
2010,06,03,10,31,3.10
2010,06,03,10,32,3.30
2010,06,03,10,33,6.40
2010,06,03,10,34,5.30
2010,06,03,10,35,5.70
2010,06,03,10,36,4.70
2010,06,03,10,37,9.20
2010,06,03,10,38,8.00
2010,06,03,10,39,10.20
2010,06,03,10,40,8.40
2010,06,03,10,41,9.40
2010,06,03,10,42,8.90
2010,06,03,10,43,11.70
2010,06,03,10,44,8.10
2010,06,03,10,45,9.40
2010,06,03,10,46,8.50
2010,06,03,10,47,8.70
2010,06,03,10,48,10.20
2010,06,03,10,49,7.80
2010,06,03,10,50,7.90
2010,06,03,10,51,13.10
2010,06,03,10,52,11.60
2010,06,03,10,53,10.60
2010,06,03,10,54,9.70
2010,06,03,10,55,9.70
2010,06,03,10,56,11.50
2010,06,03,10,57,11.80
2010,06,03,10,58,9.30
2010,06,03,10,59,7.90
2010,06,03,11,00,11.00
2010,06,03,11,01,9.50
2010,06,03,11,02,5.50
2010,06,03,11,03,10.10
2010,06,03,11,04,7.10
2010,06,03,11,05,9.30
2010,06,03,11,06,6.00
2010,06,03,11,07,4.10
2010,06,03,11,08,6.90
2010,06,03,11,09,8.50
2010,06,03,11,10,8.10
2010,06,03,11,11,3.20
2010,06,03,11,12,3.00
2010,06,03,11,13,9.20
2010,06,03,11,14,10.50
2010,06,03,11,15,11.50
2010,06,03,11,16,10.70
2010,06,03,11,17,9.30
2010,06,03,11,18,11.10
2010,06,03,11,19,9.90
2010,06,03,11,20,8.90
2010,06,03,11,21,5.60
2010,06,03,11,22,5.50
2010,06,03,11,23,10.90
2010,06,03,11,24,9.20
2010,06,03,11,25,7.60
2010,06,03,11,26,5.10
2010,06,03,11,27,3.70
2010,06,03,11,28,9.00
2010,06,03,11,29,12.50
2010,06,03,11,30,7.50
2010,06,03,11,31,8.70
2010,06,03,11,32,8.40
2010,06,03,11,33,10.60
2010,06,03,11,34,13.20
2010,06,03,11,35,10.70
2010,06,03,11,36,9.70
2010,06,03,11,37,9.60
2010,06,03,11,38,8.50
2010,06,03,11,39,8.60
2010,06,03,11,40,6.70
2010,06,03,11,41,9.50
2010,06,03,11,42,9.00
2010,06,03,11,43,10.40
2010,06,03,11,44,9.30
2010,06,03,11,45,10.60
2010,06,03,11,46,10.60
2010,06,03,11,47,8.90
2010,06,03,11,48,8.20
2010,06,03,11,49,10.50
2010,06,03,11,50,8.80
2010,06,03,11,51,5.80
2010,06,03,11,52,8.00
2010,06,03,11,53,4.30
2010,06,03,11,54,9.10
2010,06,03,11,55,11.70
2010,06,03,11,56,8.00
2010,06,03,11,57,8.80
2010,06,03,11,58,10.70
2010,06,03,11,59,3.80
2010,06,03,12,00,6.80
2010,06,03,12,01,5.40
2010,06,03,12,02,0.70
2010,06,03,12,03,2.50
2010,06,03,12,04,9.60
2010,06,03,12,05,6.10
2010,06,03,12,06,6.90
2010,06,03,12,07,4.70
2010,06,03,12,08,4.50
2010,06,03,12,09,7.50
2010,06,03,12,10,2.30
2010,06,03,12,11,6.10
2010,06,03,12,12,4.40
2010,06,03,12,13,5.80
2010,06,03,12,14,4.00
2010,06,03,12,15,7.50
2010,06,03,12,16,5.80
2010,06,03,12,17,11.00
2010,06,03,12,18,5.20
2010,06,03,12,19,3.10
2010,06,03,12,20,7.60
2010,06,03,12,21,7.50
2010,06,03,12,22,3.80
2010,06,03,12,23,4.70
2010,06,03,12,24,2.90
2010,06,03,12,25,2.70
2010,06,03,12,26,2.70
2010,06,03,12,27,6.50
2010,06,03,12,28,4.40
2010,06,03,12,29,6.70
2010,06,03,12,30,6.70
2010,06,03,12,31,4.20
2010,06,03,12,32,5.30
2010,06,03,12,33,3.20
2010,06,03,12,34,6.90
2010,06,03,12,35,7.50
2010,06,03,12,36,7.70
2010,06,03,12,37,7.90
2010,06,03,12,38,9.50
2010,06,03,12,39,8.80
2010,06,03,12,40,5.20
2010,06,03,12,41,2.20
2010,06,03,12,42,3.50
2010,06,03,12,43,2.70
2010,06,03,12,44,6.50
2010,06,03,12,45,6.50
2010,06,03,12,46,5.30
2010,06,03,12,47,3.20
2010,06,03,12,48,2.40
2010,06,03,12,49,6.40
2010,06,03,12,50,7.10
2010,06,03,12,51,2.60
2010,06,03,12,52,5.10
2010,06,03,12,53,6.40
2010,06,03,12,54,8.90
2010,06,03,12,55,2.40
2010,06,03,12,56,5.00
2010,06,03,12,57,5.20
2010,06,03,12,58,5.60
2010,06,03,12,59,5.70
2010,06,03,13,00,7.20
2010,06,03,13,01,8.90
2010,06,03,13,02,5.40
2010,06,03,13,03,3.50
2010,06,03,13,04,3.40
2010,06,03,13,05,6.40
2010,06,03,13,06,1.50
2010,06,03,13,07,1.00
2010,06,03,13,08,2.00
2010,06,03,13,09,4.60
2010,06,03,13,10,5.40
2010,06,03,13,11,5.50
2010,06,03,13,12,7.50
2010,06,03,13,13,7.60
2010,06,03,13,14,8.80
2010,06,03,13,15,7.10
2010,06,03,13,16,8.80
2010,06,03,13,17,7.60
2010,06,03,13,18,6.00
2010,06,03,13,19,5.20
2010,06,03,13,20,5.30
2010,06,03,13,21,6.50
2010,06,03,13,22,7.40
2010,06,03,13,23,8.40
2010,06,03,13,24,8.20
2010,06,03,13,25,4.60
2010,06,03,13,26,7.60
2010,06,03,13,27,7.90
2010,06,03,13,28,8.00
2010,06,03,13,29,7.90
2010,06,03,13,30,6.40
2010,06,03,13,31,7.50
2010,06,03,13,32,8.90
2010,06,03,13,33,7.60
2010,06,03,13,34,8.00
2010,06,03,13,35,5.40
2010,06,03,13,36,7.40
2010,06,03,13,37,7.70
2010,06,03,13,38,4.20
2010,06,03,13,39,4.60
2010,06,03,13,40,6.70
2010,06,03,13,41,8.20
2010,06,03,13,42,5.80
2010,06,03,13,43,3.80
2010,06,03,13,44,0.30
2010,06,03,13,45,1.50
2010,06,03,13,46,3.10
2010,06,03,13,47,1.50
2010,06,03,13,48,4.40
2010,06,03,13,49,3.90
2010,06,03,13,50,8.60
2010,06,03,13,51,4.20
2010,06,03,13,52,3.50
2010,06,03,13,53,8.10
2010,06,03,13,54,4.40
2010,06,03,13,55,6.00
2010,06,03,13,56,5.60
2010,06,03,13,57,6.20
2010,06,03,13,58,8.90
2010,06,03,13,59,6.30
2010,06,03,14,00,1.50
2010,06,03,14,01,3.20
2010,06,03,14,02,5.30
2010,06,03,14,03,6.00
2010,06,03,14,04,8.60
2010,06,03,14,05,4.90
2010,06,03,14,06,7.60
2010,06,03,14,07,4.70
2010,06,03,14,08,7.50
2010,06,03,14,09,8.40
2010,06,03,14,10,8.50
2010,06,03,14,11,6.60
2010,06,03,14,12,7.80
2010,06,03,14,13,8.10
2010,06,03,14,14,10.40
2010,06,03,14,15,9.70
2010,06,03,14,16,9.80
2010,06,03,14,17,11.70
2010,06,03,14,18,9.80
2010,06,03,14,19,9.70
2010,06,03,14,20,10.10
2010,06,03,14,21,8.90
2010,06,03,14,22,9.30
2010,06,03,14,23,9.80
2010,06,03,14,24,10.60
2010,06,03,14,25,9.10
2010,06,03,14,26,8.70
2010,06,03,14,27,9.10
2010,06,03,14,28,8.40
2010,06,03,14,29,8.70
2010,06,03,14,30,7.00
2010,06,03,14,31,9.80
2010,06,03,14,32,10.70
2010,06,03,14,33,8.10
2010,06,03,14,34,7.40
2010,06,03,14,35,9.60
2010,06,03,14,36,5.60
2010,06,03,14,37,8.90
2010,06,03,14,38,8.80
2010,06,03,14,39,8.50
2010,06,03,14,40,8.20
2010,06,03,14,41,8.90
2010,06,03,14,42,9.70
2010,06,03,14,43,7.30
2010,06,03,14,44,7.50
2010,06,03,14,45,8.40
2010,06,03,14,46,4.60
2010,06,03,14,47,6.10
2010,06,03,14,48,5.30
2010,06,03,14,49,5.80
2010,06,03,14,50,4.50
2010,06,03,14,51,4.80
2010,06,03,14,52,3.60
2010,06,03,14,53,8.70
2010,06,03,14,54,5.20
2010,06,03,14,55,7.10
2010,06,03,14,56,4.50
2010,06,03,14,57,5.90
2010,06,03,14,58,6.10
2010,06,03,14,59,5.90
2010,06,03,15,00,6.20
2010,06,03,15,01,3.80
2010,06,03,15,02,6.40
2010,06,03,15,03,5.00
2010,06,03,15,04,1.20
2010,06,03,15,05,4.20
2010,06,03,15,06,3.30
2010,06,03,15,07,4.70
2010,06,03,15,08,3.10
2010,06,03,15,09,8.30
2010,06,03,15,10,7.40
2010,06,03,15,11,8.40
2010,06,03,15,12,8.00
2010,06,03,15,13,7.50
2010,06,03,15,14,8.60
2010,06,03,15,15,8.60
2010,06,03,15,16,7.90
2010,06,03,15,17,7.70
2010,06,03,15,18,7.40
2010,06,03,15,19,7.40
2010,06,03,15,20,6.20
2010,06,03,15,21,8.20
2010,06,03,15,22,4.30
2010,06,03,15,23,4.10
2010,06,03,15,24,3.90
2010,06,03,15,25,1.20
2010,06,03,15,26,1.60
2010,06,03,15,27,3.50
2010,06,03,15,28,5.80
2010,06,03,15,29,5.00
2010,06,03,15,30,4.20
2010,06,03,15,31,3.60
2010,06,03,15,32,6.50
2010,06,03,15,33,3.70
2010,06,03,15,34,5.90
2010,06,03,15,35,5.60
2010,06,03,15,36,4.30
2010,06,03,15,37,5.50
2010,06,03,15,38,1.80
2010,06,03,15,39,5.50
2010,06,03,15,40,6.40
2010,06,03,15,41,4.60
2010,06,03,15,42,5.40
2010,06,03,15,43,3.70
2010,06,03,15,44,4.90
2010,06,03,15,45,2.00
2010,06,03,15,46,4.00
2010,06,03,15,47,6.70
2010,06,03,15,48,5.30
2010,06,03,15,49,4.40
2010,06,03,15,50,4.80
2010,06,03,15,51,5.10
2010,06,03,15,52,6.10
2010,06,03,15,53,2.20
2010,06,03,15,54,1.80
2010,06,03,15,55,3.90
2010,06,03,15,56,5.20
2010,06,03,15,57,7.00
2010,06,03,15,58,3.60
2010,06,03,15,59,3.70
2010,06,03,16,00,2.60
2010,06,03,16,01,1.90
2010,06,03,16,02,1.90
2010,06,03,16,03,3.20
2010,06,03,16,04,2.40
2010,06,03,16,05,3.40
2010,06,03,16,06,2.20
2010,06,03,16,07,2.20
2010,06,03,16,08,1.90
2010,06,03,16,09,3.70
2010,06,03,16,10,3.90
2010,06,03,16,11,5.80
2010,06,03,16,12,6.80
2010,06,03,16,13,7.50
2010,06,03,16,14,7.50
2010,06,03,16,15,2.90
2010,06,03,16,16,5.90
2010,06,03,16,17,2.20
2010,06,03,16,18,6.20
2010,06,03,16,19,8.20
2010,06,03,16,20,9.00
2010,06,03,16,21,10.20
2010,06,03,16,22,8.90
2010,06,03,16,23,8.80
2010,06,03,16,24,7.60
2010,06,03,16,25,6.70
2010,06,03,16,26,5.40
2010,06,03,16,27,5.80
2010,06,03,16,28,9.30
2010,06,03,16,29,7.70
2010,06,03,16,30,9.00
2010,06,03,16,31,6.60
2010,06,03,16,32,6.70
2010,06,03,16,33,5.70
2010,06,03,16,34,4.60
2010,06,03,16,35,9.10
2010,06,03,16,36,5.20
2010,06,03,16,37,1.50
2010,06,03,16,38,4.10
2010,06,03,16,39,5.90
2010,06,03,16,40,5.50
2010,06,03,16,41,4.80
2010,06,03,16,42,5.10
2010,06,03,16,43,5.50
2010,06,03,16,44,5.30
2010,06,03,16,45,5.40
2010,06,03,16,46,11.40
2010,06,03,16,47,9.00
2010,06,03,16,48,6.40
2010,06,03,16,49,7.90
2010,06,03,16,50,7.30
2010,06,03,16,51,4.60
2010,06,03,16,52,5.50
2010,06,03,16,53,6.00
2010,06,03,16,54,1.60
2010,06,03,16,55,1.50
2010,06,03,16,56,3.10
2010,06,03,16,57,5.80
2010,06,03,16,58,1.30
2010,06,03,16,59,2.50
2010,06,03,17,00,2.80
2010,06,03,17,01,2.50
2010,06,03,17,02,4.10
2010,06,03,17,03,8.50
2010,06,03,17,04,10.60
2010,06,03,17,05,8.70
2010,06,03,17,06,4.90
2010,06,03,17,07,3.50
2010,06,03,17,08,3.90
2010,06,03,17,09,7.30
2010,06,03,17,10,6.30
2010,06,03,17,11,4.40
2010,06,03,17,12,4.80
2010,06,03,17,13,3.60
2010,06,03,17,14,7.70
2010,06,03,17,15,1.60
2010,06,03,17,16,6.50
2010,06,03,17,17,5.70
2010,06,03,17,18,5.50
2010,06,03,17,19,4.60
2010,06,03,17,20,5.30
2010,06,03,17,21,3.60
2010,06,03,17,22,6.40
2010,06,03,17,23,3.80
2010,06,03,17,24,4.70
2010,06,03,17,25,6.10
2010,06,03,17,26,5.10
2010,06,03,17,27,5.20
2010,06,03,17,28,1.90
2010,06,03,17,29,5.30
2010,06,03,17,30,9.20
2010,06,03,17,31,5.90
2010,06,03,17,32,6.00
2010,06,03,17,33,1.90
2010,06,03,17,34,3.80
2010,06,03,17,35,6.40
2010,06,03,17,36,2.70
2010,06,03,17,37,2.40
2010,06,03,17,38,2.70
2010,06,03,17,39,5.80
2010,06,03,17,40,7.50
2010,06,03,17,41,7.10
2010,06,03,17,42,6.20
2010,06,03,17,43,1.90
2010,06,03,17,44,1.30
2010,06,03,17,45,0.40
2010,06,03,17,46,4.30
2010,06,03,17,47,4.40
2010,06,03,17,48,3.10
2010,06,03,17,49,1.20
2010,06,03,17,50,3.00
2010,06,03,17,51,1.80
2010,06,03,17,52,2.10
2010,06,03,17,53,2.30
2010,06,03,17,54,3.50
2010,06,03,17,55,2.30
2010,06,03,17,56,4.10
2010,06,03,17,57,1.10
2010,06,03,17,58,0.20
2010,06,03,17,59,0.70
2010,06,03,18,00,6.30
2010,06,03,18,01,8.00
2010,06,03,18,02,4.80
2010,06,03,18,03,1.40